This is the latest recevied weather packets stored in our database for station/object WC4PEM-11. If no packets are shown the sender has not sent any weather packets the latest 10 day(s).
| Time | Temp. | Humidity | Pressure | Rain* | Wind** | Luminosity | Snow |
|---|---|---|---|---|---|---|---|
| 1778008684 | 31.11° C | 47% | 1014.7 hPa | 0 mm | - | - | - |
| 1778008384 | 30.56° C | 47% | 1014.8 hPa | 0 mm | - | - | - |
| 1778008135 | 30° C | 51% | 1015.2 hPa | 0 mm | - | - | - |
| 1778008084 | 30.56° C | 46% | 1015 hPa | 0 mm | - | - | - |
| 1778007784 | 30.56° C | 48% | 1015 hPa | 0 mm | - | - | - |
| 1778007484 | 30.56° C | 48% | 1015 hPa | 0 mm | - | - | - |
| 1778007184 | 30° C | 50% | 1014.9 hPa | 0 mm | - | - | - |
| 1778006884 | 29.44° C | 49% | 1015 hPa | 0 mm | - | - | - |
| 1778006584 | 29.44° C | 51% | 1015.1 hPa | 0 mm | - | - | - |
| 1778006284 | 30° C | 51% | 1015.2 hPa | 0 mm | - | - | - |
| 1778005984 | 29.44° C | 50% | 1015.2 hPa | 0 mm | - | - | - |
| 1778005684 | 29.44° C | 51% | 1015.4 hPa | 0 mm | - | - | - |
| 1778005586 | 29.44° C | 53% | 1015.4 hPa | 0 mm | - | - | - |
| 1778005384 | 29.44° C | 53% | 1015.4 hPa | 0 mm | - | - | - |
| 1778005303 | 29.44° C | 52% | 1015.6 hPa | 0 mm | - | - | - |
| 1778005084 | 28.89° C | 52% | 1015.5 hPa | 0 mm | - | - | - |
| 1778004784 | 29.44° C | 54% | 1015.6 hPa | 0 mm | - | - | - |
| 1778004484 | 29.44° C | 52% | 1015.6 hPa | 0 mm | - | - | - |
| 1778004184 | 29.44° C | 52% | 1015.7 hPa | 0 mm | - | - | - |
| 1778003884 | 29.44° C | 53% | 1015.6 hPa | 0 mm | - | - | - |
| 1778003584 | 29.44° C | 52% | 1015.8 hPa | 0 mm | - | - | - |
| 1778003284 | 29.44° C | 53% | 1015.8 hPa | 0 mm | - | - | - |
| 1778003213 | 29.44° C | 51% | 1015.9 hPa | 0 mm | - | - | - |
| 1778002984 | 29.44° C | 52% | 1015.9 hPa | 0 mm | - | - | - |
| 1778002684 | 29.44° C | 51% | 1015.9 hPa | 0 mm | - | - | - |
* Rain latest hour (hover to see other rain measurements)
** Current wind speed in m/s (hover to see current wind gust speed)